Flag for U.S.A. Weather past 2 weeks in Milwaukee, Wisconsin, U.S.A.

Now
27 °F

Ice fog.


Feels Like: 20 °F
Forecast: 21 / 30 °F
Wind: 6 mph from Northwest

Location: Milwaukee / Timmerman

Current Time: Dec 18, 2014 at 3:00:14 PM

Latest Report: Dec 18, 2014 at 1:45 PM


Visibility: 5 mi

Pressure: 30.23 "Hg

Humidity: 93%

Dew point: 25 °F

Location of MilwaukeeLocation

Historic Weather in Milwaukee — Graph

°F

Milwaukee temperature yesterday

Maximum temperature yesterday: 28 °F (at 12:15 AM)
Minimum temperature yesterday: 19 °F (at 10:55 PM)
Average temperature yesterday: 25 °F

Past Weeks' High & Low Weather Summary

 TemperatureHumidityPressure
High48 °F (Dec 14, 11:45 AM)100% (Dec 8, 9:55 PM)30.68 "Hg (Dec 8, 9:55 PM)
Low18 °F (Dec 4, 3:35 AM)44% (Dec 3, 2:45 PM)29.65 "Hg (Dec 16, 3:15 AM)
Average31 °F81%30.21 "Hg
* Reported Dec 3 1:45 PM — Dec 18 1:45 PM, Milwaukee, Weather by CustomWeather, © 2014

Note: Actual official high and low records may vary slightly from our data, if they occured in-between our weather recording intervals... More about our weather records

Advertising

Milwaukee weather history for previous 24 hours

 ConditionsComfort  
Time TempWeatherWind HumidityBarometerVisibility
1:45 PM
Dec 18
27 °FIce fog.6 mph93%30.23 "Hg5 mi
12:45 PM27 °FIce fog.7 mph93%30.24 "Hg2 mi
11:45 AM27 °FIce fog.8 mph86%30.26 "Hg3 mi
10:45 AM25 °FIce fog.6 mph93%30.28 "Hg2 mi
9:45 AM25 °FMostly cloudy.6 mph86%30.29 "Hg2 mi
8:45 AM25 °FMostly cloudy.No wind86%30.28 "Hg7 mi
7:45 AM25 °FMostly cloudy.No wind80%30.27 "Hg10 mi
6:45 AM25 °FOvercast.No wind80%30.26 "Hg10 mi
5:35 AM21 °FPassing clouds.6 mph86%30.25 "Hg10 mi
5:15 AM21 °FOvercast.3 mph86%30.26 "Hg10 mi
4:55 AM21 °FOvercast.5 mph80%30.26 "Hg10 mi
4:15 AM18 °FPassing clouds.3 mph86%30.27 "Hg10 mi
3:55 AM19 °FClear.5 mph79%30.26 "Hg10 mi
3:35 AM19 °FClear.6 mph79%30.26 "Hg10 mi
3:15 AM19 °FClear.5 mph79%30.27 "Hg10 mi
2:55 AM19 °FPassing clouds.6 mph79%30.27 "Hg10 mi
2:35 AM19 °FPassing clouds.6 mph79%30.28 "Hg10 mi
2:15 AM19 °FClear.6 mph79%30.28 "Hg10 mi
1:55 AM19 °FClear.6 mph79%30.28 "Hg10 mi
1:35 AM19 °FClear.6 mph79%30.27 "Hg10 mi
1:15 AM19 °FClear.6 mph79%30.27 "Hg10 mi
12:55 AM19 °FClear.6 mph79%30.27 "Hg10 mi
12:15 AM19 °FClear.6 mph79%30.27 "Hg10 mi
11:55 PM
Dec 17
19 °FClear.7 mph79%30.28 "Hg10 mi
11:35 PM19 °FClear.7 mph79%30.27 "Hg10 mi
11:15 PM19 °FClear.6 mph79%30.27 "Hg10 mi
10:55 PM19 °FClear.8 mph79%30.27 "Hg10 mi
10:35 PM21 °FClear.8 mph74%30.27 "Hg10 mi
10:15 PM21 °FPassing clouds.10 mph74%30.26 "Hg10 mi
9:15 PM21 °FPassing clouds.8 mph74%30.26 "Hg10 mi
8:55 PM21 °FClear.9 mph74%30.26 "Hg10 mi
8:15 PM21 °FClear.8 mph74%30.26 "Hg10 mi
7:45 PM21 °FClear.8 mph74%30.25 "Hg10 mi
6:45 PM21 °FClear.8 mph74%30.24 "Hg10 mi
4:45 PM25 °FOvercast.12 mph69%30.23 "Hg10 mi
3:45 PM25 °FOvercast.16 mph69%30.21 "Hg10 mi
Weather by CustomWeather, © 2014

See weather overviewHow to use our weather pages